Weather History for KOWD - April, 2013

Change the Weather History Date:

Sunday, April 7, 2013

  Actual Average Record
Temperature  
Mean Temperature 38 °F -  
Max Temperature 53 °F 52 °F 73 °F (1997)
Min Temperature 24 °F 33 °F 24 °F (2013)
Degree Days  
Heating Degree Days 26    
Moisture  
Dew Point 29 °F    
Average Humidity 65    
Maximum Humidity 88    
Minimum Humidity 33    
Precipitation  
Precipitation 0.00 in - - ()
Sea Level Pressure  
Sea Level Pressure 30.19 in    
Wind  
Wind Speed 6 mph (SSW)    
Max Wind Speed 25 mph    
Max Gust Speed 36 mph    
Visibility 10 miles    
Events      
Averages and records for this station are not official NWS values.
T = Trace of Precipitation, MM = Missing Value Source: NWS Daily Summary

Daily Weather History Graph

Daily Weather History Graph

Search for Another Location

Airport or City:

Trip Planner

Search our weather history database for the weather conditions in past years. The results will help you decide how hot, cold, wet, or windy it might be!

Date:

Astronomy

Apr. 07, 2013 Rise Set
Actual Time 6:16 AM EDT 7:17 PM EDT
Civil Twilight 5:48 AM EDT 7:46 PM EDT
Nautical Twilight 5:14 AM EDT 8:20 PM EDT
Astronomical Twilight 4:38 AM EDT 8:55 PM EDT
Moon 4:35 AM EDT (4/7) 4:44 PM EDT (4/7)
Length of Visible Light 13h 57m
Length of Day
13h 00m
Waning Crescent, 8% of the Moon is Illuminated
Apr 7
Waning Crescent
Apr 10
New
Apr 18
First Quarter
Apr 25
Full
May 2
Last Quarter

Hourly Weather History & Observations

Time (EDT) Temp. Windchill Dew Point Humidity Pressure Visibility Wind Dir Wind Speed Gust Speed Precip Events Conditions
12:53 AM 27.0 °F - 17.1 °F 66% 30.33 in 10.0 mi Calm Calm - N/A   Clear
1:53 AM 26.1 °F - 21.0 °F 81% 30.31 in 10.0 mi Calm Calm - N/A   Clear
2:53 AM 26.1 °F - 21.0 °F 81% 30.30 in 10.0 mi Calm Calm - N/A   Clear
3:53 AM 25.0 °F - 19.9 °F 81% 30.29 in 10.0 mi Calm Calm - N/A   Clear
4:53 AM 25.0 °F - 21.9 °F 88% 30.29 in 10.0 mi Calm Calm - N/A   Clear
5:53 AM 24.1 °F - 21.0 °F 88% 30.30 in 10.0 mi Calm Calm - N/A   Clear
6:53 AM 26.1 °F - 23.0 °F 88% 30.31 in 10.0 mi Calm Calm - N/A   Clear
7:53 AM 34.0 °F - 30.0 °F 85% 30.32 in 10.0 mi Calm Calm - N/A   Clear
8:53 AM 43.0 °F 39.5 °F 27.0 °F 53% 30.32 in 10.0 mi SSW 5.8 mph - N/A   Clear
9:53 AM 48.0 °F - 21.9 °F 36% 30.29 in 10.0 mi South 15.0 mph 20.7 mph N/A   Clear
10:53 AM 48.0 °F - 21.9 °F 36% 30.27 in 10.0 mi South 10.4 mph 23.0 mph N/A   Scattered Clouds
11:53 AM 50.0 °F - 21.9 °F 33% 30.22 in 10.0 mi South 19.6 mph 29.9 mph N/A   Scattered Clouds
12:53 PM 50.0 °F - 23.0 °F 35% 30.19 in 10.0 mi SSW 19.6 mph 29.9 mph N/A   Mostly Cloudy
1:53 PM 53.1 °F - 28.9 °F 40% 30.15 in 10.0 mi South 25.3 mph 32.2 mph N/A   Clear
2:53 PM 50.0 °F - 32.0 °F 50% 30.13 in 10.0 mi SSW 19.6 mph 35.7 mph N/A   Clear
3:53 PM 52.0 °F - 35.1 °F 53% 30.10 in 10.0 mi South 17.3 mph 32.2 mph N/A   Clear
4:53 PM 53.1 °F - 36.0 °F 52% 30.07 in 10.0 mi SSW 17.3 mph 29.9 mph N/A   Partly Cloudy
5:53 PM 50.0 °F - 37.0 °F 61% 30.03 in 10.0 mi South 12.7 mph 28.8 mph N/A   Clear
6:53 PM 48.0 °F - 37.9 °F 68% 30.08 in 10.0 mi SSW 17.3 mph 26.5 mph N/A   Partly Cloudy
7:53 PM 46.9 °F - 39.0 °F 74% 30.06 in 10.0 mi SSW 10.4 mph 20.7 mph N/A   Scattered Clouds
8:53 PM 48.0 °F - 39.0 °F 71% 30.06 in 10.0 mi SSW 10.4 mph - N/A   Overcast
9:53 PM 46.0 °F 40.6 °F 39.9 °F 79% 30.05 in 10.0 mi SSW 11.5 mph 17.3 mph N/A   Clear
10:53 PM 45.0 °F 40.6 °F 39.9 °F 82% 30.03 in 10.0 mi South 8.1 mph - N/A   Clear
11:53 PM 46.0 °F 41.9 °F 41.0 °F 83% 30.02 in 10.0 mi South 8.1 mph - N/A   Clear